Anchorage Merrill, AK

6:38 AM AKST on December 11, 2017 (GMT -0900)
Merrill

Weather History for PAMR - June, 2012

Change the Weather History Date:

Thursday, June 14, 2012

  Actual Average Record
Temperature  
Mean Temperature 54 °F -  
Max Temperature 63 °F 63 °F 80 °F (2015)
Min Temperature 46 °F 47 °F 43 °F (2007)
Degree Days  
Heating Degree Days 12    
Growing Degree Days 4 (Base 50)    
Moisture  
Dew Point 41 °F    
Average Humidity 65    
Maximum Humidity 87    
Minimum Humidity 42    
Precipitation  
Precipitation 0.02 in - - ()
Sea Level Pressure  
Sea Level Pressure 29.95 in    
Wind  
Wind Speed 2 mph (SSW)    
Max Wind Speed 8 mph    
Max Gust Speed -    
Visibility 10 miles    
Events Rain    
Averages and records for this station are not official NWS values.
T = Trace of Precipitation, MM = Missing Value Source: NWS Daily Summary

Daily Weather History Graph

Daily Weather History Graph

Search for Another Location

Airport or City:

Trip Planner

Search our weather history database for the weather conditions in past years. The results will help you decide how hot, cold, wet, or windy it might be!

Date:

Astronomy

Jun. 14, 2012 Rise Set
Actual Time 4:20 AM AKDT 11:39 PM AKDT
Civil Twilight 2:32 AM AKDT 1:27 AM AKDT
Nautical Twilight Sun does not rise Sun does not rise
Astronomical Twilight Sun does not rise Sun does not rise
Moon 2:19 AM AKDT (6/14) 6:33 PM AKDT (6/14)
Length of Visible Light 22h 55m
Length of Day
19h 18m
Waning Crescent, 20% of the Moon is Illuminated
Jun 14
Waning Crescent
Jun 19
New
Jun 26
First Quarter
Jul 3
Full
Jul 10
Last Quarter

Hourly Weather History & Observations

Time (AKDT) Temp. Dew Point Humidity Pressure Visibility Wind Dir Wind Speed Gust Speed Precip Events Conditions
12:53 AM 48.9 °F 43.0 °F 80% 29.94 in 10.0 mi Calm Calm - N/A   Mostly Cloudy
1:53 AM 48.0 °F 41.0 °F 77% 29.95 in 10.0 mi Calm Calm - N/A   Mostly Cloudy
2:53 AM 48.0 °F 39.9 °F 74% 29.95 in 10.0 mi Calm Calm - 0.00 in   Overcast
3:53 AM 46.9 °F 41.0 °F 80% 29.95 in 10.0 mi Calm Calm - 0.00 in Rain Light Rain
4:53 AM 46.9 °F 39.9 °F 77% 29.96 in 10.0 mi NNE 3.5 mph - 0.01 in Rain Light Rain
5:53 AM 46.9 °F 41.0 °F 80% 29.96 in 10.0 mi ENE 4.6 mph - 0.00 in Rain Light Rain
6:51 AM 46.4 °F 42.8 °F 87% 29.95 in 10.0 mi Calm Calm - 0.01 in   Overcast
6:53 AM 46.9 °F 43.0 °F 86% 29.96 in 10.0 mi Calm Calm - 0.01 in   Overcast
7:53 AM 48.9 °F 43.0 °F 80% 29.96 in 10.0 mi Calm Calm - 0.00 in   Overcast
8:53 AM 50.0 °F 42.1 °F 74% 29.97 in 10.0 mi North 3.5 mph - 0.00 in Rain Light Rain
9:51 AM 55.4 °F 48.2 °F 77% 29.97 in 10.0 mi Variable 3.5 mph - 0.00 in   Mostly Cloudy
9:53 AM 54.0 °F 46.9 °F 77% 29.97 in 10.0 mi Variable 4.6 mph - 0.00 in   Mostly Cloudy
10:06 AM 53.6 °F 46.4 °F 77% 29.97 in 10.0 mi West 5.8 mph - N/A   Mostly Cloudy
10:53 AM 52.0 °F 43.0 °F 71% 29.97 in 10.0 mi NW 6.9 mph - N/A   Mostly Cloudy
11:53 AM 55.9 °F 42.1 °F 60% 29.97 in 10.0 mi Variable 4.6 mph - N/A   Mostly Cloudy
12:53 PM 55.9 °F 41.0 °F 57% 29.96 in 10.0 mi Variable 4.6 mph - N/A   Scattered Clouds
1:53 PM 57.9 °F 39.0 °F 49% 29.96 in 10.0 mi NW 4.6 mph - N/A   Mostly Cloudy
2:53 PM 57.9 °F 42.1 °F 56% 29.96 in 10.0 mi Calm Calm - N/A   Overcast
3:53 PM 60.1 °F 39.9 °F 47% 29.96 in 10.0 mi Variable 3.5 mph - 0.00 in Rain Light Rain
4:53 PM 57.9 °F 41.0 °F 53% 29.95 in 10.0 mi ESE 3.5 mph - 0.00 in   Mostly Cloudy
5:53 PM 61.0 °F 42.1 °F 50% 29.94 in 10.0 mi SW 8.1 mph - N/A   Mostly Cloudy
6:53 PM 60.1 °F 39.9 °F 47% 29.93 in 10.0 mi South 6.9 mph - N/A   Mostly Cloudy
7:53 PM 61.0 °F 37.9 °F 42% 29.92 in 10.0 mi SW 6.9 mph - N/A   Mostly Cloudy
8:53 PM 57.9 °F 36.0 °F 44% 29.91 in 10.0 mi South 5.8 mph - N/A   Scattered Clouds
9:53 PM 57.0 °F 36.0 °F 45% 29.91 in 10.0 mi South 4.6 mph - N/A   Clear
10:53 PM 55.9 °F 34.0 °F 44% 29.91 in 10.0 mi South 3.5 mph - N/A   Scattered Clouds
11:53 PM 52.0 °F 35.1 °F 53% 29.91 in 10.0 mi ESE 3.5 mph - N/A   Mostly Cloudy